# Tabular Observed and Forecast Hydrograph Information
#
# Location: Santa Clara River - Piru (SCPC1)
#
# File Generation Time: 09/03/2026 at 07:29 AM PDT
# Data Interval: 1 Hour
#
# Most Recent Date & Time of Maximum Observed: 08/30/2026 at 05:00 AM PDT
# Maximum Observed Stage: 1.39 Feet
# Maximum Observed Flow: 47 cfs
#
# Earliest Date & Time of Maximum Forecast: 09/06/2026 at 05:00 PM PDT
# Maximum Forecast Stage: 1.74 Feet
# Maximum Forecast Flow: 81 cfs
#
# OBSERVED
#
# Date & Time (Local) Stage (Feet) Flow (cfs) Trend Observed Status
# ---------------------------------------------------------------------------------
08/29/2026 07 AM PDT 1.32 42 Normal
08/29/2026 08 AM PDT 1.32 42 0 Normal
08/29/2026 09 AM PDT 1.34 43 + Normal
08/29/2026 10 AM PDT 1.35 44 + Normal
08/29/2026 11 AM PDT 1.33 43 - Normal
08/29/2026 12 PM PDT 1.33 43 0 Normal
08/29/2026 01 PM PDT 1.32 42 - Normal
08/29/2026 02 PM PDT 1.31 41 - Normal
08/29/2026 03 PM PDT 1.31 41 0 Normal
08/29/2026 04 PM PDT 1.30 40 - Normal
08/29/2026 05 PM PDT 1.29 39 - Normal
08/29/2026 06 PM PDT 1.29 39 0 Normal
08/29/2026 07 PM PDT 1.30 40 + Normal
08/29/2026 08 PM PDT 1.31 41 + Normal
08/29/2026 09 PM PDT 1.33 43 + Normal
08/29/2026 10 PM PDT 1.34 43 + Normal
08/29/2026 11 PM PDT 1.35 44 + Normal
08/30/2026 12 AM PDT 1.36 45 + Normal
08/30/2026 01 AM PDT 1.36 45 0 Normal
08/30/2026 02 AM PDT 1.38 47 + Normal
08/30/2026 03 AM PDT 1.37 46 - Normal
08/30/2026 04 AM PDT 1.39 47 + Normal
08/30/2026 05 AM PDT 1.39 47 0 Normal
08/30/2026 06 AM PDT 1.38 47 - Normal
08/30/2026 07 AM PDT 1.36 45 - Normal
08/30/2026 08 AM PDT 1.37 46 + Normal
08/30/2026 09 AM PDT 1.37 46 0 Normal
08/30/2026 10 AM PDT 1.37 46 0 Normal
08/30/2026 11 AM PDT 1.36 45 - Normal
08/30/2026 12 PM PDT 1.35 44 - Normal
08/30/2026 01 PM PDT 1.34 43 - Normal
08/30/2026 02 PM PDT 1.33 43 - Normal
08/30/2026 03 PM PDT 1.31 41 - Normal
08/30/2026 04 PM PDT 1.32 42 + Normal
08/30/2026 05 PM PDT 1.31 41 - Normal
08/30/2026 06 PM PDT 1.32 42 + Normal
08/30/2026 07 PM PDT 1.32 42 0 Normal
08/30/2026 08 PM PDT 1.32 42 0 Normal
08/30/2026 09 PM PDT 1.34 43 + Normal
08/30/2026 10 PM PDT 1.35 44 + Normal
08/30/2026 11 PM PDT 1.36 45 + Normal
08/31/2026 12 AM PDT 1.35 44 - Normal
08/31/2026 01 AM PDT 1.36 45 + Normal
08/31/2026 02 AM PDT 1.37 46 + Normal
08/31/2026 03 AM PDT 1.37 46 0 Normal
08/31/2026 04 AM PDT 1.38 47 + Normal
08/31/2026 05 AM PDT 1.38 47 0 Normal
08/31/2026 06 AM PDT 1.38 47 0 Normal
08/31/2026 07 AM PDT 1.37 46 - Normal
08/31/2026 08 AM PDT 1.38 47 + Normal
08/31/2026 09 AM PDT 1.38 47 0 Normal
08/31/2026 10 AM PDT 1.35 44 - Normal
08/31/2026 11 AM PDT 1.36 45 + Normal
08/31/2026 12 PM PDT 1.35 44 - Normal
08/31/2026 01 PM PDT 1.34 43 - Normal
08/31/2026 02 PM PDT 1.33 43 - Normal
08/31/2026 03 PM PDT 1.33 43 0 Normal
08/31/2026 04 PM PDT 1.32 42 - Normal
08/31/2026 05 PM PDT 1.32 42 0 Normal
08/31/2026 06 PM PDT 1.31 41 - Normal
08/31/2026 07 PM PDT 1.32 42 + Normal
08/31/2026 08 PM PDT 1.33 43 + Normal
08/31/2026 09 PM PDT 1.34 43 + Normal
08/31/2026 10 PM PDT 1.35 44 + Normal
08/31/2026 11 PM PDT 1.35 44 0 Normal
09/01/2026 12 AM PDT 1.35 44 0 Normal
09/01/2026 01 AM PDT 1.37 46 + Normal
09/01/2026 02 AM PDT 1.37 46 0 Normal
09/01/2026 03 AM PDT 1.38 47 + Normal
09/01/2026 04 AM PDT 1.38 47 0 Normal
09/01/2026 05 AM PDT 1.37 46 - Normal
09/01/2026 06 AM PDT 1.38 47 + Normal
09/01/2026 07 AM PDT 1.37 46 - Normal
09/01/2026 08 AM PDT 1.37 46 0 Normal
09/01/2026 09 AM PDT 1.35 44 - Normal
09/01/2026 10 AM PDT 1.34 43 - Normal
09/01/2026 11 AM PDT 1.34 43 0 Normal
09/01/2026 12 PM PDT 1.34 43 0 Normal
09/01/2026 01 PM PDT 1.33 43 - Normal
09/01/2026 02 PM PDT 1.32 42 - Normal
09/01/2026 03 PM PDT 1.31 41 - Normal
09/01/2026 04 PM PDT 1.31 41 0 Normal
09/01/2026 05 PM PDT 1.31 41 0 Normal
09/01/2026 06 PM PDT 1.31 41 0 Normal
09/01/2026 07 PM PDT 1.32 42 + Normal
09/01/2026 08 PM PDT 1.33 43 + Normal
09/01/2026 09 PM PDT 1.33 43 0 Normal
09/01/2026 10 PM PDT 1.33 43 0 Normal
09/01/2026 11 PM PDT 1.33 43 0 Normal
09/02/2026 12 AM PDT 1.34 43 + Normal
09/02/2026 01 AM PDT 1.34 43 0 Normal
09/02/2026 02 AM PDT 1.34 43 0 Normal
09/02/2026 03 AM PDT 1.34 43 0 Normal
09/02/2026 04 AM PDT 1.35 44 + Normal
09/02/2026 05 AM PDT 1.35 44 0 Normal
09/02/2026 06 AM PDT 1.35 44 0 Normal
09/02/2026 07 AM PDT 1.34 43 - Normal
09/02/2026 08 AM PDT 1.35 44 + Normal
09/02/2026 09 AM PDT 1.36 45 + Normal
09/02/2026 10 AM PDT 1.34 43 - Normal
09/02/2026 11 AM PDT 1.33 43 - Normal
09/02/2026 12 PM PDT 1.33 43 0 Normal
09/02/2026 01 PM PDT 1.33 43 0 Normal
09/02/2026 02 PM PDT 1.33 43 0 Normal
09/02/2026 03 PM PDT 1.32 42 - Normal
09/02/2026 04 PM PDT 1.32 42 0 Normal
09/02/2026 05 PM PDT 1.31 41 - Normal
09/02/2026 06 PM PDT 1.30 40 - Normal
09/02/2026 07 PM PDT 1.31 41 + Normal
09/02/2026 08 PM PDT 1.33 43 + Normal
09/02/2026 09 PM PDT 1.34 43 + Normal
09/02/2026 10 PM PDT 1.34 43 0 Normal
09/02/2026 11 PM PDT 1.35 44 + Normal
09/03/2026 12 AM PDT 1.35 44 0 Normal
09/03/2026 01 AM PDT 1.36 45 + Normal
09/03/2026 02 AM PDT 1.36 45 0 Normal
09/03/2026 03 AM PDT 1.36 45 0 Normal
09/03/2026 04 AM PDT 1.37 46 + Normal
09/03/2026 05 AM PDT 1.37 46 0 Normal
09/03/2026 06 AM PDT 1.37 46 0 Normal
09/03/2026 07 AM PDT 1.37 46 0 Normal
#
# FORECAST
#
# Date & Time (Local) Stage (Feet) Flow (cfs) Trend Forecast Status
# ---------------------------------------------------------------------------------
09/03/2026 08 AM PDT 1.37 46 Normal
09/03/2026 09 AM PDT 1.37 46 0 Normal
09/03/2026 10 AM PDT 1.37 46 0 Normal
09/03/2026 11 AM PDT 1.37 46 0 Normal
09/03/2026 12 PM PDT 1.37 46 0 Normal
09/03/2026 01 PM PDT 1.37 46 0 Normal
09/03/2026 02 PM PDT 1.37 46 0 Normal
09/03/2026 03 PM PDT 1.37 46 0 Normal
09/03/2026 04 PM PDT 1.37 46 0 Normal
09/03/2026 05 PM PDT 1.37 46 0 Normal
09/03/2026 06 PM PDT 1.37 46 0 Normal
09/03/2026 07 PM PDT 1.37 46 0 Normal
09/03/2026 08 PM PDT 1.37 46 0 Normal
09/03/2026 09 PM PDT 1.37 46 0 Normal
09/03/2026 10 PM PDT 1.37 46 0 Normal
09/03/2026 11 PM PDT 1.37 46 0 Normal
09/04/2026 12 AM PDT 1.37 46 0 Normal
09/04/2026 01 AM PDT 1.37 46 0 Normal
09/04/2026 02 AM PDT 1.37 46 0 Normal
09/04/2026 03 AM PDT 1.36 45 - Normal
09/04/2026 04 AM PDT 1.36 45 0 Normal
09/04/2026 05 AM PDT 1.36 45 0 Normal
09/04/2026 06 AM PDT 1.36 45 0 Normal
09/04/2026 07 AM PDT 1.36 45 0 Normal
09/04/2026 08 AM PDT 1.36 45 0 Normal
09/04/2026 09 AM PDT 1.36 45 0 Normal
09/04/2026 10 AM PDT 1.36 45 0 Normal
09/04/2026 11 AM PDT 1.36 45 0 Normal
09/04/2026 12 PM PDT 1.36 45 0 Normal
09/04/2026 01 PM PDT 1.36 45 0 Normal
09/04/2026 02 PM PDT 1.36 45 0 Normal
09/04/2026 03 PM PDT 1.36 45 0 Normal
09/04/2026 04 PM PDT 1.36 45 0 Normal
09/04/2026 05 PM PDT 1.36 45 0 Normal
09/04/2026 06 PM PDT 1.36 45 0 Normal
09/04/2026 07 PM PDT 1.36 45 0 Normal
09/04/2026 08 PM PDT 1.36 45 0 Normal
09/04/2026 09 PM PDT 1.36 45 0 Normal
09/04/2026 10 PM PDT 1.36 45 0 Normal
09/04/2026 11 PM PDT 1.36 45 0 Normal
09/05/2026 12 AM PDT 1.36 45 0 Normal
09/05/2026 01 AM PDT 1.36 45 0 Normal
09/05/2026 02 AM PDT 1.36 45 0 Normal
09/05/2026 03 AM PDT 1.36 45 0 Normal
09/05/2026 04 AM PDT 1.36 45 0 Normal
09/05/2026 05 AM PDT 1.36 45 0 Normal
09/05/2026 06 AM PDT 1.36 45 0 Normal
09/05/2026 07 AM PDT 1.36 45 0 Normal
09/05/2026 08 AM PDT 1.36 45 0 Normal
09/05/2026 09 AM PDT 1.36 45 0 Normal
09/05/2026 10 AM PDT 1.36 45 0 Normal
09/05/2026 11 AM PDT 1.36 45 0 Normal
09/05/2026 12 PM PDT 1.36 45 0 Normal
09/05/2026 01 PM PDT 1.36 45 0 Normal
09/05/2026 02 PM PDT 1.36 45 0 Normal
09/05/2026 03 PM PDT 1.36 45 0 Normal
09/05/2026 04 PM PDT 1.36 45 0 Normal
09/05/2026 05 PM PDT 1.36 45 0 Normal
09/05/2026 06 PM PDT 1.36 45 0 Normal
09/05/2026 07 PM PDT 1.36 45 0 Normal
09/05/2026 08 PM PDT 1.36 45 0 Normal
09/05/2026 09 PM PDT 1.36 45 0 Normal
09/05/2026 10 PM PDT 1.36 45 0 Normal
09/05/2026 11 PM PDT 1.36 45 0 Normal
09/06/2026 12 AM PDT 1.36 45 0 Normal
09/06/2026 01 AM PDT 1.35 44 - Normal
09/06/2026 02 AM PDT 1.35 44 0 Normal
09/06/2026 03 AM PDT 1.35 44 0 Normal
09/06/2026 04 AM PDT 1.35 44 0 Normal
09/06/2026 05 AM PDT 1.35 44 0 Normal
09/06/2026 06 AM PDT 1.37 46 + Normal
09/06/2026 07 AM PDT 1.39 47 + Normal
09/06/2026 08 AM PDT 1.42 50 + Normal
09/06/2026 09 AM PDT 1.46 53 + Normal
09/06/2026 10 AM PDT 1.51 58 + Normal
09/06/2026 11 AM PDT 1.57 64 + Normal
09/06/2026 12 PM PDT 1.62 68 + Normal
09/06/2026 01 PM PDT 1.66 72 + Normal
09/06/2026 02 PM PDT 1.70 77 + Normal
09/06/2026 03 PM PDT 1.72 79 + Normal
09/06/2026 04 PM PDT 1.73 80 + Normal
09/06/2026 05 PM PDT 1.74 81 + Normal
09/06/2026 06 PM PDT 1.74 81 0 Normal
09/06/2026 07 PM PDT 1.73 80 - Normal
09/06/2026 08 PM PDT 1.71 78 - Normal
09/06/2026 09 PM PDT 1.68 74 - Normal
09/06/2026 10 PM PDT 1.63 69 - Normal
09/06/2026 11 PM PDT 1.58 65 - Normal
09/07/2026 12 AM PDT 1.53 60 - Normal
09/07/2026 01 AM PDT 1.49 56 - Normal
09/07/2026 02 AM PDT 1.45 53 - Normal
09/07/2026 03 AM PDT 1.42 50 - Normal
09/07/2026 04 AM PDT 1.41 49 - Normal
09/07/2026 05 AM PDT 1.40 48 - Normal
09/07/2026 06 AM PDT 1.39 47 - Normal
09/07/2026 07 AM PDT 1.38 47 - Normal
09/07/2026 08 AM PDT 1.37 46 - Normal
09/07/2026 09 AM PDT 1.37 46 0 Normal
09/07/2026 10 AM PDT 1.36 45 - Normal
09/07/2026 11 AM PDT 1.36 45 0 Normal
09/07/2026 12 PM PDT 1.36 45 0 Normal
09/07/2026 01 PM PDT 1.36 45 0 Normal
09/07/2026 02 PM PDT 1.35 44 - Normal
09/07/2026 03 PM PDT 1.35 44 0 Normal
09/07/2026 04 PM PDT 1.35 44 0 Normal
09/07/2026 05 PM PDT 1.35 44 0 Normal
09/07/2026 06 PM PDT 1.35 44 0 Normal
09/07/2026 07 PM PDT 1.35 44 0 Normal
09/07/2026 08 PM PDT 1.35 44 0 Normal
09/07/2026 09 PM PDT 1.35 44 0 Normal
09/07/2026 10 PM PDT 1.35 44 0 Normal
09/07/2026 11 PM PDT 1.35 44 0 Normal
09/08/2026 12 AM PDT 1.35 44 0 Normal
09/08/2026 01 AM PDT 1.34 43 - Normal
09/08/2026 02 AM PDT 1.34 43 0 Normal
09/08/2026 03 AM PDT 1.34 43 0 Normal
09/08/2026 04 AM PDT 1.34 43 0 Normal
09/08/2026 05 AM PDT 1.34 43 0 Normal
#
# NOTE 1: Stages are rounded to the nearest hundredth (.01) of a foot.
# NOTE 2: Flows are rounded to the nearest (1) cfs.
# NOTE 3: Trends are determined using hourly change in unrounded stage and flow.
# NOTE 4: Maximum Values are determined using unrounded stage and flow.
|